Starlink 5883

operational
NORAD ID: 55956 Int'l Des: 2023-037 Owner: SPXS Country: US Constellation: starlink
LEOCIRCULAR

About Starlink 5883

Description loading...

Live Position

Loading 3D Globe...

Upcoming Passes

Altitude History

Altitude vs Time

uPlot chart will show altitude changes over time

Two-Line Element Set

1 55956U 23037AU 25304.22638790 -.00001720 00000-0 -13635-3 0 9999
2 55956 70.0015 230.7632 0002676 269.4183 90.6669 14.98334081145087
Epoch: Oct 31, 2025 • Age: 15 hours

Current Status

Altitude 582.9 km
Velocity 7.57 km/s
Sub-Earth Point 58.06°N, 77.76°W
Launch Date Mar 17, 2023
Age 2.6 years
Type internet

Technical Details

Classification Payload
Mass 305.00 kg
Dry Mass 290.00 kg
Total Mass 305.00 kg
Length 0.20 m
Diameter 2.80 m
Span 9.00 m
Shape Box + pan
Manufacturer SPXS
Bus Type Starlink
Phase Status In Orbit
Owner/State SPXS/US

Large Constellations

Loading constellations...